Location: Asheville, NC
(35.6000°N, 82.5500°W)
Time: 18:34:01
(UTC-04:00)

Vanguard 2 Rocket - Pass Details

Date: 16 February 2018
Orbit: 554 x 3327 km, 32.9° (Epoch: 21 May)

Event Time Altitude Azimuth Distance (km) Brightness Sun altitude
Rises 08:28:06 0° 281° (W) 7,227 10.9 13.0°
Reaches altitude 10° 08:35:33 10° 266° (W) 5,922 10.6 14.3°
Maximum altitude 08:45:31 18° 232° (SW) 4,619 10.3 16.1°
Drops below altitude 10° 08:53:29 10° 195° (SSW) 4,546 10.7 17.5°
Sets 08:58:07 0° 177° (S) 5,043 11.2 18.4°
